AFR672 LFPG-FMEE

Flight info

Callsign AFR672
Flight time N/A
Altitude 31000
Route BUBLI DCT LUVAL DCT SHARA DCT DEVDI DCT ODINA/N0487F330 DCT GOXIN DCT LIKNO DCT NAVAG DCT DINOB DCT SALUN N705 BOPIX N710 TAKRI P751 LXR M999 SEDVA/N0493F350 M999 JDW M559 RIBAM G650 RASKA/N0496F340 G650 ULONI UG650 ASM/N0494F350 UR780 SETIT DCT XADOX DCT DWA UN304 APKAK/N0492F360 UN304 ALRUS/N0490F370 DCT IXEBU DCT UVENA UVENA2R
Aircraft B77W/H-SDE1E2E3FGHIJ2J3J4J5M1RWXY/LB1D1

Departure

Time N/A
Airport Charles de Gaulle International Airport (LFPG)

Arrival

Time 2026-04-18 06:42
Airport Roland Garros Airport (FMEE)
Time Latitude Longitude Altitude Speed Heading
2026-04-18 05:47 -14.97127 52.69918 32992 ft 513 kts 160°
2026-04-18 05:47 -15.03659 52.72913 32992 ft 513 kts 160°
2026-04-18 05:48 -15.08702 52.75228 33000 ft 514 kts 160°
2026-04-18 05:48 -15.15236 52.78228 33005 ft 513 kts 160°
2026-04-18 05:49 -15.21710 52.81204 32995 ft 512 kts 160°
2026-04-18 05:49 -15.28216 52.84195 33000 ft 511 kts 160°
2026-04-18 05:50 -15.34709 52.87183 33003 ft 510 kts 160°
2026-04-18 05:50 -15.41196 52.90170 33003 ft 510 kts 160°
2026-04-18 05:51 -15.47682 52.93158 33024 ft 510 kts 160°
2026-04-18 05:51 -15.54161 52.96146 33014 ft 510 kts 160°
2026-04-18 05:52 -15.60636 52.99133 33013 ft 509 kts 160°
2026-04-18 05:52 -15.67107 53.02121 33014 ft 509 kts 160°
2026-04-18 05:53 -15.73580 53.05112 33016 ft 509 kts 160°
2026-04-18 05:53 -15.80053 53.08105 33021 ft 509 kts 160°
2026-04-18 05:54 -15.86536 53.11104 33018 ft 510 kts 160°
2026-04-18 05:54 -15.93021 53.14107 33018 ft 510 kts 160°
2026-04-18 05:55 -15.99507 53.17113 33021 ft 511 kts 160°
2026-04-18 05:55 -16.06001 53.20124 33013 ft 511 kts 160°
2026-04-18 05:56 -16.12494 53.23137 33016 ft 511 kts 160°
2026-04-18 05:56 -16.18983 53.26150 33016 ft 511 kts 160°
2026-04-18 05:57 -16.28286 53.30474 33015 ft 510 kts 160°
2026-04-18 05:58 -16.34758 53.33485 33017 ft 510 kts 160°
2026-04-18 05:58 -16.41234 53.36499 33034 ft 509 kts 159°
2026-04-18 05:59 -16.47697 53.39510 33026 ft 508 kts 159°
2026-04-18 05:59 -16.54138 53.42513 33082 ft 506 kts 159°
2026-04-18 05:59 -16.57349 53.44011 33349 ft 506 kts 160°
2026-04-18 06:00 -16.60572 53.45515 33603 ft 508 kts 160°
2026-04-18 06:00 -16.63805 53.47023 33868 ft 510 kts 160°
2026-04-18 06:00 -16.67054 53.48539 34121 ft 512 kts 160°
2026-04-18 06:00 -16.70310 53.50060 34341 ft 513 kts 160°
2026-04-18 06:01 -16.73568 53.51582 34603 ft 513 kts 159°
2026-04-18 06:01 -16.76821 53.53104 34829 ft 511 kts 159°
2026-04-18 06:01 -16.80052 53.54616 35048 ft 509 kts 159°
2026-04-18 06:01 -16.83282 53.56129 35274 ft 507 kts 159°
2026-04-18 06:02 -16.86496 53.57634 35504 ft 506 kts 159°
2026-04-18 06:02 -16.89703 53.59135 35736 ft 504 kts 159°
2026-04-18 06:02 -16.92905 53.60635 35971 ft 503 kts 159°
2026-04-18 06:02 -16.96058 53.62112 36208 ft 503 kts 159°
2026-04-18 06:03 -16.99248 53.63607 36453 ft 502 kts 159°
2026-04-18 06:03 -17.02432 53.65100 36689 ft 502 kts 159°
2026-04-18 06:03 -17.05614 53.66592 36925 ft 502 kts 159°
2026-04-18 06:04 -17.12029 53.69600 37030 ft 507 kts 159°
2026-04-18 06:04 -17.18448 53.72617 37015 ft 501 kts 159°
2026-04-18 06:05 -17.24735 53.75576 37027 ft 492 kts 159°
2026-04-18 06:05 -17.30976 53.78511 37031 ft 491 kts 159°
2026-04-18 06:06 -17.37204 53.81441 37030 ft 491 kts 159°
2026-04-18 06:06 -17.43432 53.84374 37033 ft 491 kts 159°
2026-04-18 06:07 -17.49665 53.87312 37036 ft 492 kts 159°
2026-04-18 06:07 -17.55906 53.90257 37035 ft 492 kts 159°
2026-04-18 06:08 -17.62159 53.93209 37036 ft 493 kts 159°
2026-04-18 06:08 -17.68420 53.96168 37036 ft 494 kts 159°
2026-04-18 06:09 -17.74649 53.99114 37035 ft 494 kts 159°
2026-04-18 06:09 -17.80915 54.02079 37038 ft 494 kts 159°
2026-04-18 06:10 -17.87179 54.05047 37037 ft 494 kts 159°
2026-04-18 06:10 -17.93432 54.08011 37039 ft 493 kts 159°
2026-04-18 06:11 -17.99682 54.10976 37043 ft 493 kts 159°
2026-04-18 06:11 -18.05928 54.13941 37044 ft 492 kts 159°
2026-04-18 06:12 -18.12172 54.16907 37041 ft 492 kts 159°
2026-04-18 06:12 -18.18408 54.19873 37045 ft 492 kts 159°
2026-04-18 06:13 -18.24644 54.22840 37044 ft 492 kts 159°
2026-04-18 06:13 -18.30880 54.25810 37051 ft 492 kts 158°
2026-04-18 06:14 -18.37117 54.28783 37047 ft 492 kts 158°
2026-04-18 06:14 -18.43307 54.31736 37044 ft 492 kts 158°
2026-04-18 06:15 -18.49538 54.34711 37045 ft 491 kts 158°
2026-04-18 06:15 -18.55768 54.37688 37050 ft 491 kts 158°
2026-04-18 06:16 -18.62001 54.40637 37054 ft 490 kts 160°
2026-04-18 06:16 -18.68354 54.43236 37049 ft 489 kts 162°
2026-04-18 06:17 -18.74747 54.45702 37049 ft 489 kts 162°
2026-04-18 06:17 -18.81128 54.48199 37053 ft 489 kts 162°
2026-04-18 06:18 -18.87494 54.50734 37060 ft 489 kts 162°
2026-04-18 06:18 -18.93857 54.53286 37059 ft 489 kts 161°
2026-04-18 06:19 -19.00218 54.55839 37053 ft 489 kts 161°
2026-04-18 06:19 -19.06573 54.58389 37055 ft 488 kts 161°
2026-04-18 06:20 -19.12889 54.61045 37054 ft 489 kts 160°
2026-04-18 06:20 -19.19135 54.63769 37064 ft 489 kts 160°
2026-04-18 06:21 -19.25424 54.66515 37050 ft 489 kts 160°
2026-04-18 06:21 -19.28610 54.67683 37039 ft 482 kts 172°
2026-04-18 06:21 -19.31879 54.68260 36864 ft 475 kts 167°
2026-04-18 06:21 -19.34953 54.69511 36537 ft 472 kts 157°
2026-04-18 06:22 -19.37928 54.70985 35855 ft 473 kts 157°
2026-04-18 06:22 -19.40894 54.72435 34688 ft 469 kts 158°
2026-04-18 06:22 -19.43882 54.73846 33173 ft 470 kts 159°
2026-04-18 06:22 -19.46887 54.75213 31721 ft 469 kts 159°
2026-04-18 06:23 -19.49881 54.76543 30439 ft 464 kts 159°
2026-04-18 06:23 -19.52848 54.77844 29007 ft 458 kts 159°
2026-04-18 06:23 -19.55777 54.79121 27642 ft 451 kts 159°
2026-04-18 06:23 -19.58651 54.80373 26445 ft 447 kts 159°
2026-04-18 06:24 -19.61555 54.81638 25753 ft 450 kts 159°
2026-04-18 06:24 -19.64428 54.82890 25372 ft 443 kts 159°
2026-04-18 06:24 -19.67282 54.84065 24938 ft 438 kts 161°
2026-04-18 06:24 -19.70130 54.85182 24361 ft 437 kts 161°
2026-04-18 06:25 -19.72997 54.86288 23770 ft 437 kts 161°
2026-04-18 06:25 -19.75853 54.87389 23186 ft 435 kts 161°
2026-04-18 06:25 -19.78696 54.88493 22428 ft 436 kts 161°
2026-04-18 06:25 -19.81551 54.89610 21692 ft 438 kts 160°
2026-04-18 06:26 -19.84416 54.90736 20944 ft 440 kts 160°
2026-04-18 06:26 -19.87283 54.91867 20285 ft 439 kts 160°
2026-04-18 06:26 -19.90139 54.92996 19673 ft 437 kts 160°
2026-04-18 06:26 -19.92979 54.94121 19097 ft 434 kts 160°
2026-04-18 06:27 -19.95808 54.95241 18507 ft 433 kts 160°
2026-04-18 06:27 -19.98581 54.96340 17901 ft 430 kts 159°
2026-04-18 06:27 -20.01379 54.97449 17277 ft 428 kts 159°
2026-04-18 06:27 -20.04152 54.98549 16702 ft 417 kts 159°
2026-04-18 06:28 -20.06809 54.99602 15569 ft 402 kts 160°
2026-04-18 06:28 -20.09414 55.00636 14161 ft 399 kts 159°
2026-04-18 06:28 -20.12010 55.01665 12720 ft 395 kts 160°
2026-04-18 06:28 -20.14558 55.02677 12200 ft 382 kts 160°
2026-04-18 06:29 -20.17056 55.03668 12391 ft 389 kts 160°
2026-04-18 06:29 -20.19573 55.04668 12478 ft 382 kts 160°
2026-04-18 06:29 -20.22050 55.05652 12173 ft 380 kts 160°
2026-04-18 06:29 -20.24525 55.06635 11653 ft 379 kts 160°
2026-04-18 06:30 -20.26990 55.07615 11141 ft 377 kts 160°
2026-04-18 06:30 -20.29415 55.08580 10948 ft 366 kts 160°
2026-04-18 06:30 -20.31760 55.09513 10788 ft 355 kts 160°
2026-04-18 06:30 -20.34045 55.10422 10554 ft 346 kts 160°
2026-04-18 06:31 -20.36273 55.11309 10390 ft 337 kts 160°
2026-04-18 06:31 -20.38435 55.12169 10267 ft 329 kts 160°
2026-04-18 06:31 -20.40553 55.13012 10119 ft 321 kts 160°
2026-04-18 06:31 -20.42591 55.13824 9885 ft 315 kts 160°
2026-04-18 06:32 -20.44624 55.14633 9552 ft 311 kts 159°
2026-04-18 06:32 -20.46642 55.15437 9215 ft 309 kts 159°
2026-04-18 06:32 -20.48594 55.16216 8874 ft 307 kts 159°
2026-04-18 06:32 -20.50505 55.16978 8549 ft 305 kts 159°
2026-04-18 06:33 -20.52514 55.17779 8179 ft 304 kts 159°
2026-04-18 06:33 -20.54494 55.18570 7809 ft 304 kts 159°
2026-04-18 06:33 -20.56465 55.19356 7467 ft 303 kts 159°
2026-04-18 06:33 -20.58425 55.20139 7131 ft 301 kts 159°
2026-04-18 06:34 -20.60377 55.20919 6802 ft 300 kts 159°
2026-04-18 06:34 -20.61693 55.21445 6617 ft 297 kts 159°
2026-04-18 06:34 -20.63607 55.22210 6273 ft 296 kts 158°
2026-04-18 06:34 -20.65516 55.22972 5832 ft 285 kts 158°
2026-04-18 06:35 -20.67312 55.23689 5484 ft 266 kts 158°
2026-04-18 06:35 -20.68990 55.24360 5180 ft 249 kts 158°
2026-04-18 06:35 -20.70571 55.24993 4891 ft 237 kts 158°
2026-04-18 06:35 -20.72063 55.25590 4779 ft 223 kts 157°
2026-04-18 06:36 -20.73501 55.26166 4698 ft 216 kts 157°
2026-04-18 06:36 -20.74872 55.26715 4629 ft 205 kts 158°
2026-04-18 06:36 -20.76175 55.27236 4499 ft 195 kts 158°
2026-04-18 06:36 -20.77404 55.27854 4424 ft 196 kts 138°
2026-04-18 06:37 -20.78235 55.28995 4245 ft 196 kts 121°
2026-04-18 06:37 -20.78946 55.30235 4024 ft 194 kts 119°
2026-04-18 06:37 -20.79584 55.31490 3757 ft 190 kts 116°
2026-04-18 06:37 -20.80175 55.32729 3505 ft 184 kts 115°
2026-04-18 06:38 -20.80741 55.33935 3269 ft 180 kts 115°
2026-04-18 06:38 -20.81305 55.35145 3058 ft 183 kts 115°
2026-04-18 06:38 -20.81870 55.36360 2808 ft 179 kts 115°
2026-04-18 06:38 -20.82410 55.37517 2603 ft 170 kts 116°
2026-04-18 06:39 -20.82925 55.38619 2382 ft 162 kts 115°
2026-04-18 06:39 -20.83428 55.39703 2173 ft 162 kts 115°
2026-04-18 06:39 -20.83922 55.40762 1993 ft 160 kts 115°
2026-04-18 06:39 -20.84414 55.41813 1752 ft 154 kts 115°
2026-04-18 06:40 -20.84865 55.42786 1573 ft 142 kts 115°
2026-04-18 06:40 -20.85300 55.43736 1339 ft 143 kts 114°
2026-04-18 06:40 -20.85751 55.44681 1241 ft 143 kts 116°
2026-04-18 06:40 -20.86215 55.45658 1101 ft 149 kts 114°
2026-04-18 06:41 -20.86658 55.46644 942 ft 146 kts 114°
2026-04-18 06:41 -20.87096 55.47600 677 ft 139 kts 116°
2026-04-18 06:41 -20.87544 55.48533 430 ft 142 kts 115°
2026-04-18 06:41 -20.87983 55.49469 287 ft 139 kts 115°
2026-04-18 06:42 -20.88410 55.50381 103 ft 137 kts 113°
2026-04-18 06:42 -20.88817 55.51264 53 ft 116 kts 116°
2026-04-18 06:42 -20.89032 55.51722 69 ft 40 kts 116°
2026-04-18 06:42 -20.89163 55.52004 67 ft 40 kts 116°
2026-04-18 06:43 -20.89280 55.52215 73 ft 15 kts 147°
2026-04-18 06:43 -20.89349 55.52200 65 ft 11 kts 206°
2026-04-18 06:43 -20.89408 55.52146 64 ft 12 kts 259°
2026-04-18 06:43 -20.89377 55.52064 62 ft 12 kts 297°
2026-04-18 06:44 -20.89337 55.51983 63 ft 12 kts 296°
2026-04-18 06:44 -20.89302 55.51906 67 ft 11 kts 296°
2026-04-18 06:44 -20.89273 55.51845 69 ft 1 kts 296°
2026-04-18 06:44 -20.89268 55.51833 65 ft 3 kts 296°
2026-04-18 06:45 -20.89256 55.51807 69 ft 6 kts 296°
2026-04-18 06:45 -20.89232 55.51757 63 ft 9 kts 296°
2026-04-18 06:45 -20.89204 55.51697 66 ft 9 kts 296°
2026-04-18 06:45 -20.89173 55.51632 64 ft 10 kts 297°
2026-04-18 06:46 -20.89140 55.51559 66 ft 12 kts 296°
2026-04-18 06:46 -20.89127 55.51529 62 ft 2 kts 296°
2026-04-18 06:46 -20.89118 55.51511 61 ft 3 kts 296°
2026-04-18 06:46 -20.89103 55.51478 64 ft 9 kts 296°
2026-04-18 06:47 -20.89067 55.51400 60 ft 13 kts 296°
2026-04-18 06:47 -20.89045 55.51350 57 ft 7 kts 297°
2026-04-18 06:47 -20.89019 55.51297 59 ft 4 kts 297°
2026-04-18 06:47 -20.89024 55.51267 56 ft 5 kts 234°
2026-04-18 06:48 -20.89053 55.51245 57 ft 5 kts 210°
2026-04-18 06:48 -20.89069 55.51236 57 ft 0 kts 205°
2026-04-18 06:48 -20.89072 55.51235 57 ft 0 kts 205°
2026-04-18 06:48 -20.89075 55.51233 57 ft 1 kts 205°
2026-04-18 06:49 -20.89080 55.51231 59 ft 1 kts 205°